SCP
0 0 0 0 0 0 0 0 0 0 0 0 0 0 0 0 0 0 0 0 0 0 0 0 0 0 0 0 0 0 0 0 0 0 0 0 0 0 0 0 0 0 0
0 0 0 0 0 0 0 0 0 0 0 0 0 0 0 0 0 0 0 0 0 0 0 0 0 0 0 0 0 0 0 0 0 0 0 0 0 0 0 0 0 0 0
0 0 0 0 0 -0 0 0 0 0 0 0 0 0 0 0 0 0 0 0 0 0 0 0 0 0 0 0 0 0 0 0 0 0 0 0 0 0 0 0 0 0 0
0 0 0 0 0 0 0 0 0 0 0 0 0 0 0 0 0 0 0 0 0 0 0 0 0 0 0 0 0 0 0 0 0 0 0 0 0 0 0 0 0 0 0
0 0 0 0 0 0 0 0 0 0 0 0 0 0 0 0 0 0 0 0 0 0 0 0 0 0 0 0 0 0 0 0 0 0 0 0 0 0 0 0 0 0 0
0 0 0 0 0 0 0 0 0 0 0 0 0 0 0 0 0 0 0 0 0 0 0 0 0 0 0 0 0 0 0 0 0 0 0 0 0 0 0 0 0 0 0
0 0 0 0 0 0 0 0 0 0 0 0 0 0 0 0 0 0 0 0 0 0 0 0 0 0 0 0 0 0 0 0 0 0 0 0 0 0 0 0 0 0 0
0 0 0 0 0 0 0 0 0 0 0 0 0 0 0 0 0 0 0 0 0 0 0 0 0 0 0 0 0 0 0 0 0 0 0 0 0 0 0 0 0 0 0
0 0 0 0 0 0 0 0 0 0 0 0 0 0 0 0 0 0 0 0 0 0 0 0 0 0 0 0 0 0 0 0 0 0 0 0 0 0 0 0 0 0 0
0 0 0 0 0 0 0 0 0 0 0 0 0 0 0 0 0 0 0 0 0 0 0 0 0 0 0 0 0 0 0 0 0 0 0 0 0 0 0 0 0 0 0
0 0 0 0 0 0 0 0 0 0 0 0 0 0 0 0 0 0 0 0 0 0 0 0 0 0 0 0 0 0 0 0 0 0 0 0 0 0 0 0 0 0 0
0 0 0 0 0 0 0 0 0 0 0 0 0 0 0 0 0 0 0 0 0 0 0 0 0 0 0 0 0 0 0 0 0 0 0 0 0 0 0 0 0 0 0
0 0 0 0 0 0 0 0 0 0 0 0 0 0 0 0 0 0 0 0 0 0 0 0 0 0 0 0 0 0 0 0 0 0 0 0 0 0 0 0 0 0 0
0 0 0 0 0 0 0 0 0 0 0 0 0 0 0 0 0 0 0 0 0 0 0 0 0 0 0 0 0 0 0 0 0 0 0 0 0 0 0 0 0 0 0
0 0 0 0 0 0 0 0 0 0 0 0 0 0 0 0 0 0 0 0 0 0 0 0 0 0 0 0 0 0 0 0 0 0 0 0 0 0 0 0 0 0 0
0 0 0 0 0 0 0 0 0 0 0 0 0 0 0 0 0 0 0 0 0 0 0 0 0 0 0 0 0 0 0 0 0 0 0 0 0 0 0 0 0 0 0
0 0 0 0 0 0 0 0 0 0 0 0 0 0 0 0 0 0 0 0 0 0 0 0 0 0 0 0 0 0 0 0 0 0 0 0 0 0 0 0 0 0 0
0 0 0 0 0 0 0 0 0 0 0 0 0 0 0 0 0 0 0 0 0 0 0 0 0 0 0 0 0 0 0 0 0 0 0 0 0 0 0 0 0 0 0
0 0 0 0 0 0 0 0 0 0 0 0 0 0 0 0 0 0 0 0 0 0 0 0 0 0 0 0 0 0 0 0 0 0 0 0 0 0 0 0 0 0 0
0 0 0 0 0 0 0 0 0 0 0 0 0 0 0 0 0 0 0 0 0 0 0 0 0 0 0 0 0 0 0 0 0 0 0 0 0 0 0 0 0 0 0
0 0 0 0 0 0 0 0 0 0 0 0 0 0 0 0 0 0 0 0 0 0 0 0 0 0 0 0 0 0 0 0 0 0 0 0 0 0 0 0 0 0 0
0 0 0 0 0 0 0 0 0 0 0 0 0 0 0 0 0 0 0 0 0 0 0 0 0 0 0 0 0 0 0 0 0 0 0 0 0 0 0 0 0 0 0
0 0 0 0 0 0 0 0 0 0 0 0 0 0 0 0 0 0 0 0 0 0 0 0 0 0 0 0 0 0 0 0 0 0 0 0 0 0 0 0 0 0 0
0 0 0 0 0 0 0 0 0 0 0 0 0 0 0 0 0 0 0 0 0 0 0 0 0 0 0 0 0 0 0 0 0 0 0 0 0 0 0 0 0 0 0
0 0 0 0 0 0 0 0 0 0 0 0 0 0 0 0 0 0 0 0 0 0 0 0 0 0 0 0 0 0 0 0 0 0 0 0 0 0 0 0 0 0 0
0 0 0 0 0 0 0 0 0 0 0 0 0 0 0 0 0 0 0 0 0 0 0 0 0 0 0 0 0 0 0 0 0 0 0 0 0 0 0 0 0 0 0
Wind_Speed_500mb
19 20 20 21 23 21 23 23 26 25 23 19 18 14 12 11 12 12 9 6 7 11 14 17 18 17 18 17 15 15 14 13 14 17 17 20 24 23 13 10 10 11 11
18 21 22 21 24 24 25 27 24 24 21 17 14 12 9 8 7 3 1 5 7 11 13 14 15 16 15 13 13 12 10 9 9 14 20 22 22 20 15 6 4 4 2
21 20 22 25 26 27 27 24 16 11 10 15 10 8 10 11 8 3 3 7 11 14 15 15 15 15 15 14 12 9 8 6 5 6 12 11 14 18 14 12 7 5 6
29 26 26 28 25 23 22 15 6 7 9 5 3 6 7 6 5 2 5 9 12 14 14 16 17 17 16 14 13 11 10 8 7 6 5 1 5 9 12 7 10 9 7
38 27 27 25 24 22 15 10 4 6 4 2 3 4 5 7 5 4 5 7 12 14 16 16 17 16 16 16 15 15 14 13 12 11 11 9 9 14 13 11 8 6 6
43 35 33 28 24 20 16 10 6 12 10 8 9 8 11 8 6 4 7 8 11 13 15 16 16 15 15 14 13 12 15 16 16 16 17 17 22 15 20 16 16 14 11
32 34 35 21 17 19 14 9 12 11 13 12 10 11 8 7 5 5 8 10 11 13 14 15 15 16 15 15 13 11 13 14 16 16 19 22 24 27 26 24 23 21 22
32 32 27 27 21 16 13 13 11 11 12 12 13 13 8 7 6 7 7 11 13 14 16 16 16 15 16 15 14 13 12 15 15 15 17 20 23 26 27 27 28 28 28
28 28 23 19 10 6 12 13 12 9 11 11 10 11 10 8 8 9 10 12 13 15 18 20 20 19 17 18 16 15 16 15 17 18 17 18 20 22 24 24 24 27 29
25 23 20 20 18 15 14 14 12 10 7 7 8 8 8 8 9 12 14 16 18 18 20 20 21 21 20 20 20 20 20 20 20 21 22 21 21 24 27 27 28 27 28
28 24 21 17 16 16 15 16 14 14 8 12 10 7 8 10 12 14 16 18 19 20 21 22 22 23 23 22 22 21 22 24 23 23 24 25 24 27 29 29 29 30 30
29 29 26 23 20 19 17 17 16 13 10 11 8 7 7 11 13 14 16 17 18 21 21 21 22 22 22 22 22 22 22 24 24 25 26 27 27 27 29 31 32 31 31
19 21 25 24 23 23 21 18 16 14 11 10 8 8 9 11 13 16 18 20 21 22 22 22 22 23 22 21 21 21 21 22 23 25 26 26 27 28 29 32 33 33 35
19 18 22 25 25 24 22 20 17 14 12 9 9 9 11 14 17 20 21 23 24 24 24 23 22 20 20 21 20 20 20 22 23 24 26 29 29 30 32 33 34 36 37
23 21 23 23 25 24 23 21 18 15 12 10 10 11 14 17 20 22 23 23 23 23 22 22 20 19 18 19 21 21 22 23 25 26 27 28 29 30 32 33 33 35 36
26 22 23 23 25 25 24 22 19 16 13 12 12 13 15 19 22 22 21 21 21 22 22 21 19 17 18 18 20 23 24 26 27 27 28 28 28 28 29 29 31 32 33
26 25 22 21 25 27 26 24 21 18 16 15 15 16 18 21 23 21 21 22 24 25 24 21 19 20 20 20 22 24 26 28 28 26 23 23 24 27 27 28 35 38 36
29 28 28 26 25 28 30 28 26 23 21 19 16 17 18 20 19 19 21 25 27 26 22 18 17 17 20 21 20 22 25 22 19 18 20 19 23 29 36 34 34 37 40
37 31 33 31 27 28 34 33 31 29 25 20 18 18 19 19 17 20 24 26 25 22 18 15 19 20 20 20 23 25 20 17 17 11 21 38 32 30 31 36 39 43 48
40 38 34 31 28 30 34 36 35 31 26 22 20 19 19 18 19 22 24 25 22 19 17 18 19 22 25 25 25 26 20 12 9 14 37 24 34 29 32 41 45 47 49
36 37 37 34 29 29 32 36 35 31 26 23 22 21 19 19 21 25 26 26 23 20 18 19 19 20 21 26 27 23 16 18 4 45 19 35 26 34 43 45 51 53 53
29 35 37 36 28 22 24 29 32 30 28 26 25 21 21 21 25 27 28 27 25 22 21 22 22 22 23 27 31 29 15 13 18 30 36 27 34 42 45 52 50 49 50
23 28 35 35 28 22 22 27 31 30 27 24 22 23 23 24 26 29 30 29 27 25 23 23 24 23 23 24 27 22 13 12 53 28 32 33 50 50 53 48 43 46 44
14 23 32 35 30 25 23 24 27 29 28 27 28 27 26 26 27 29 30 30 29 27 25 26 26 25 26 25 26 26 26 31 22 31 37 59 52 62 59 46 45 36 38
14 20 30 35 33 28 25 25 27 29 30 31 31 32 31 30 31 31 32 32 30 30 28 28 30 31 31 32 32 32 34 35 38 33 59 63 68 66 63 55 44 43 38
16 19 25 30 31 29 28 29 29 31 32 32 33 35 36 37 37 38 39 38 35 34 34 35 36 37 38 39 39 40 39 40 45 46 54 69 71 69 69 59 47 39 42
Wind_Direction_500mb
166 166 161 168 165 157 146 140 136 132 135 139 135 136 136 135 126 124 118 93 31 20 15 12 9 9 9 14 20 25 26 26 31 29 38 46 40 40 45 55 62 81 98
169 167 164 169 167 164 155 150 146 147 145 148 151 145 154 151 147 143 120 350 351 0 5 2 356 356 357 2 2 6 14 5 8 17 46 35 35 26 30 31 26 24 43
156 159 155 159 157 151 154 149 151 167 184 174 178 197 189 174 172 207 311 331 341 350 353 353 351 349 348 347 344 340 336 339 328 353 50 46 30 27 22 20 13 290 275
160 163 163 157 156 161 161 164 166 264 316 330 172 172 176 180 190 227 310 327 329 334 337 336 334 329 326 322 319 318 309 295 281 287 313 278 288 314 329 350 12 341 304
155 170 173 177 175 177 178 182 222 275 260 241 188 210 203 211 229 249 287 307 317 325 328 327 328 326 321 315 311 302 290 281 272 266 275 260 278 270 293 279 273 311 321
169 179 158 184 189 188 189 182 234 269 257 232 231 233 238 223 214 277 294 306 314 323 325 329 329 328 324 319 315 304 292 283 275 268 264 262 274 269 273 273 269 270 266
166 179 187 191 180 187 196 203 246 264 269 248 243 256 239 238 254 258 296 314 321 324 325 328 330 328 325 322 317 308 297 287 282 276 273 271 271 280 282 282 278 271 269
184 182 216 222 202 193 206 212 228 251 244 245 245 240 239 258 278 294 309 317 319 322 325 328 326 327 325 320 318 315 304 298 294 284 277 274 274 279 285 285 282 276 269
197 210 206 223 230 228 224 228 223 220 260 245 242 243 247 265 292 305 315 317 323 332 330 328 326 326 322 319 314 308 303 300 297 297 292 287 289 287 287 287 284 282 277
206 213 222 227 234 244 233 206 199 189 193 228 231 245 268 291 308 320 322 325 326 326 324 322 322 320 318 314 311 310 305 302 298 296 295 291 291 290 292 293 292 289 286
219 226 230 235 228 216 209 207 204 218 199 232 245 261 286 302 314 319 317 322 321 319 319 319 319 317 315 314 310 307 303 302 300 298 296 294 293 293 292 294 294 294 290
214 223 232 240 232 221 212 215 213 228 222 237 245 264 286 300 308 314 317 319 316 314 315 315 314 313 312 311 309 309 306 304 303 301 301 301 301 298 300 301 302 301 298
216 212 206 211 213 213 212 215 221 223 228 241 262 287 302 308 312 314 316 316 314 313 313 313 313 312 311 309 309 309 306 305 305 304 303 303 300 301 301 301 302 301 301
229 217 216 211 213 217 216 218 218 222 228 245 268 289 302 311 312 313 312 311 310 311 312 314 312 313 315 314 315 314 310 308 304 302 302 301 301 298 297 297 298 298 296
238 232 227 222 223 222 221 217 221 226 239 259 277 295 305 312 310 310 310 309 309 312 316 317 317 318 318 320 319 318 314 312 307 305 303 300 299 298 297 296 296 297 302
242 235 240 238 232 225 225 224 224 230 241 253 271 288 302 307 309 312 313 314 316 317 318 318 317 318 321 326 327 319 317 313 309 307 303 300 299 298 299 300 300 303 307
255 249 246 247 246 239 232 229 230 234 241 252 270 290 303 310 312 313 314 314 315 315 314 314 320 323 327 329 329 321 320 316 312 310 308 310 313 315 317 316 310 309 309
246 250 249 249 250 244 238 234 233 237 242 251 270 287 297 309 309 312 311 313 315 313 312 313 316 323 326 329 332 327 324 317 314 315 319 331 330 319 315 317 318 315 315
240 243 244 246 253 250 238 234 232 235 241 253 268 282 298 303 304 307 309 311 310 308 305 311 320 326 331 338 340 338 335 327 330 354 344 321 319 325 321 320 320 317 314
239 233 235 244 249 244 236 236 236 240 246 258 269 278 286 288 294 303 305 307 304 299 297 312 322 330 335 341 347 344 342 341 334 354 332 345 329 329 330 323 318 313 310
241 232 229 236 244 245 243 240 241 246 250 257 262 266 276 282 293 304 307 305 300 296 296 308 317 327 335 339 347 0 350 340 337 339 342 336 346 336 329 325 320 313 311
235 228 225 229 236 251 250 245 245 245 249 255 258 262 280 281 296 304 305 302 296 292 292 302 314 326 337 345 353 354 344 330 330 332 334 337 337 333 332 322 316 312 310
225 217 220 225 231 246 254 244 243 246 253 256 256 263 270 283 295 302 303 300 295 289 286 295 304 315 325 335 343 350 337 311 325 323 325 327 329 330 331 322 316 312 311
218 212 206 212 223 236 242 242 245 248 254 258 262 264 272 283 294 300 301 297 292 285 282 286 291 298 308 316 321 323 319 314 317 317 316 319 323 326 332 329 318 316 316
202 200 204 209 218 226 231 238 243 248 255 259 261 264 269 279 292 300 302 300 293 284 280 281 283 288 296 301 303 305 306 306 305 298 306 315 318 323 326 329 318 319 318
194 196 202 214 221 230 239 245 249 252 255 256 258 264 271 278 286 294 295 296 294 286 278 275 276 281 285 290 293 294 297 297 301 300 297 306 309 317 320 325 318 317 320
Wind_Speed_850mb
19 20 20 21 23 21 23 23 26 25 23 19 18 14 12 11 12 12 9 6 7 11 14 17 18 17 18 17 15 15 14 13 14 17 17 20 24 23 13 10 10 11 11
18 21 22 21 24 24 25 27 24 24 21 17 14 12 9 8 7 3 1 5 7 11 13 14 15 16 15 13 13 12 10 9 9 14 20 22 22 20 15 6 4 4 2
21 20 22 25 26 27 27 24 16 11 10 15 10 8 10 11 8 3 3 7 11 14 15 15 15 15 15 14 12 9 8 6 5 6 12 11 14 18 14 12 7 5 6
29 26 26 28 25 23 22 15 6 7 9 5 3 6 7 6 5 2 5 9 12 14 14 16 17 17 16 14 13 11 10 8 7 6 5 1 5 9 12 7 10 9 7
38 27 27 25 24 22 15 10 4 6 4 2 3 4 5 7 5 4 5 7 12 14 16 16 17 16 16 16 15 15 14 13 12 11 11 9 9 14 13 11 8 6 6
43 35 33 28 24 20 16 10 6 12 10 8 9 8 11 8 6 4 7 8 11 13 15 16 16 15 15 14 13 12 15 16 16 16 17 17 22 15 20 16 16 14 11
32 34 35 21 17 19 14 9 12 11 13 12 10 11 8 7 5 5 8 10 11 13 14 15 15 16 15 15 13 11 13 14 16 16 19 22 24 27 26 24 23 21 22
32 32 27 27 21 16 13 13 11 11 12 12 13 13 8 7 6 7 7 11 13 14 16 16 16 15 16 15 14 13 12 15 15 15 17 20 23 26 27 27 28 28 28
28 28 23 19 10 6 12 13 12 9 11 11 10 11 10 8 8 9 10 12 13 15 18 20 20 19 17 18 16 15 16 15 17 18 17 18 20 22 24 24 24 27 29
25 23 20 20 18 15 14 14 12 10 7 7 8 8 8 8 9 12 14 16 18 18 20 20 21 21 20 20 20 20 20 20 20 21 22 21 21 24 27 27 28 27 28
28 24 21 17 16 16 15 16 14 14 8 12 10 7 8 10 12 14 16 18 19 20 21 22 22 23 23 22 22 21 22 24 23 23 24 25 24 27 29 29 29 30 30
29 29 26 23 20 19 17 17 16 13 10 11 8 7 7 11 13 14 16 17 18 21 21 21 22 22 22 22 22 22 22 24 24 25 26 27 27 27 29 31 32 31 31
19 21 25 24 23 23 21 18 16 14 11 10 8 8 9 11 13 16 18 20 21 22 22 22 22 23 22 21 21 21 21 22 23 25 26 26 27 28 29 32 33 33 35
19 18 22 25 25 24 22 20 17 14 12 9 9 9 11 14 17 20 21 23 24 24 24 23 22 20 20 21 20 20 20 22 23 24 26 29 29 30 32 33 34 36 37
23 21 23 23 25 24 23 21 18 15 12 10 10 11 14 17 20 22 23 23 23 23 22 22 20 19 18 19 21 21 22 23 25 26 27 28 29 30 32 33 33 35 36
26 22 23 23 25 25 24 22 19 16 13 12 12 13 15 19 22 22 21 21 21 22 22 21 19 17 18 18 20 23 24 26 27 27 28 28 28 28 29 29 31 32 33
26 25 22 21 25 27 26 24 21 18 16 15 15 16 18 21 23 21 21 22 24 25 24 21 19 20 20 20 22 24 26 28 28 26 23 23 24 27 27 28 35 38 36
29 28 28 26 25 28 30 28 26 23 21 19 16 17 18 20 19 19 21 25 27 26 22 18 17 17 20 21 20 22 25 22 19 18 20 19 23 29 36 34 34 37 40
37 31 33 31 27 28 34 33 31 29 25 20 18 18 19 19 17 20 24 26 25 22 18 15 19 20 20 20 23 25 20 17 17 11 21 38 32 30 31 36 39 43 48
40 38 34 31 28 30 34 36 35 31 26 22 20 19 19 18 19 22 24 25 22 19 17 18 19 22 25 25 25 26 20 12 9 14 37 24 34 29 32 41 45 47 49
36 37 37 34 29 29 32 36 35 31 26 23 22 21 19 19 21 25 26 26 23 20 18 19 19 20 21 26 27 23 16 18 4 45 19 35 26 34 43 45 51 53 53
29 35 37 36 28 22 24 29 32 30 28 26 25 21 21 21 25 27 28 27 25 22 21 22 22 22 23 27 31 29 15 13 18 30 36 27 34 42 45 52 50 49 50
23 28 35 35 28 22 22 27 31 30 27 24 22 23 23 24 26 29 30 29 27 25 23 23 24 23 23 24 27 22 13 12 53 28 32 33 50 50 53 48 43 46 44
14 23 32 35 30 25 23 24 27 29 28 27 28 27 26 26 27 29 30 30 29 27 25 26 26 25 26 25 26 26 26 31 22 31 37 59 52 62 59 46 45 36 38
14 20 30 35 33 28 25 25 27 29 30 31 31 32 31 30 31 31 32 32 30 30 28 28 30 31 31 32 32 32 34 35 38 33 59 63 68 66 63 55 44 43 38
16 19 25 30 31 29 28 29 29 31 32 32 33 35 36 37 37 38 39 38 35 34 34 35 36 37 38 39 39 40 39 40 45 46 54 69 71 69 69 59 47 39 42
Wind_Direction_850mb
166 166 161 168 165 157 146 140 136 132 135 139 135 136 136 135 126 124 118 93 31 20 15 12 9 9 9 14 20 25 26 26 31 29 38 46 40 40 45 55 62 81 98
169 167 164 169 167 164 155 150 146 147 145 148 151 145 154 151 147 143 120 350 351 0 5 2 356 356 357 2 2 6 14 5 8 17 46 35 35 26 30 31 26 24 43
156 159 155 159 157 151 154 149 151 167 184 174 178 197 189 174 172 207 311 331 341 350 353 353 351 349 348 347 344 340 336 339 328 353 50 46 30 27 22 20 13 290 275
160 163 163 157 156 161 161 164 166 264 316 330 172 172 176 180 190 227 310 327 329 334 337 336 334 329 326 322 319 318 309 295 281 287 313 278 288 314 329 350 12 341 304
155 170 173 177 175 177 178 182 222 275 260 241 188 210 203 211 229 249 287 307 317 325 328 327 328 326 321 315 311 302 290 281 272 266 275 260 278 270 293 279 273 311 321
169 179 158 184 189 188 189 182 234 269 257 232 231 233 238 223 214 277 294 306 314 323 325 329 329 328 324 319 315 304 292 283 275 268 264 262 274 269 273 273 269 270 266
166 179 187 191 180 187 196 203 246 264 269 248 243 256 239 238 254 258 296 314 321 324 325 328 330 328 325 322 317 308 297 287 282 276 273 271 271 280 282 282 278 271 269
184 182 216 222 202 193 206 212 228 251 244 245 245 240 239 258 278 294 309 317 319 322 325 328 326 327 325 320 318 315 304 298 294 284 277 274 274 279 285 285 282 276 269
197 210 206 223 230 228 224 228 223 220 260 245 242 243 247 265 292 305 315 317 323 332 330 328 326 326 322 319 314 308 303 300 297 297 292 287 289 287 287 287 284 282 277
206 213 222 227 234 244 233 206 199 189 193 228 231 245 268 291 308 320 322 325 326 326 324 322 322 320 318 314 311 310 305 302 298 296 295 291 291 290 292 293 292 289 286
219 226 230 235 228 216 209 207 204 218 199 232 245 261 286 302 314 319 317 322 321 319 319 319 319 317 315 314 310 307 303 302 300 298 296 294 293 293 292 294 294 294 290
214 223 232 240 232 221 212 215 213 228 222 237 245 264 286 300 308 314 317 319 316 314 315 315 314 313 312 311 309 309 306 304 303 301 301 301 301 298 300 301 302 301 298
216 212 206 211 213 213 212 215 221 223 228 241 262 287 302 308 312 314 316 316 314 313 313 313 313 312 311 309 309 309 306 305 305 304 303 303 300 301 301 301 302 301 301
229 217 216 211 213 217 216 218 218 222 228 245 268 289 302 311 312 313 312 311 310 311 312 314 312 313 315 314 315 314 310 308 304 302 302 301 301 298 297 297 298 298 296
238 232 227 222 223 222 221 217 221 226 239 259 277 295 305 312 310 310 310 309 309 312 316 317 317 318 318 320 319 318 314 312 307 305 303 300 299 298 297 296 296 297 302
242 235 240 238 232 225 225 224 224 230 241 253 271 288 302 307 309 312 313 314 316 317 318 318 317 318 321 326 327 319 317 313 309 307 303 300 299 298 299 300 300 303 307
255 249 246 247 246 239 232 229 230 234 241 252 270 290 303 310 312 313 314 314 315 315 314 314 320 323 327 329 329 321 320 316 312 310 308 310 313 315 317 316 310 309 309
246 250 249 249 250 244 238 234 233 237 242 251 270 287 297 309 309 312 311 313 315 313 312 313 316 323 326 329 332 327 324 317 314 315 319 331 330 319 315 317 318 315 315
240 243 244 246 253 250 238 234 232 235 241 253 268 282 298 303 304 307 309 311 310 308 305 311 320 326 331 338 340 338 335 327 330 354 344 321 319 325 321 320 320 317 314
239 233 235 244 249 244 236 236 236 240 246 258 269 278 286 288 294 303 305 307 304 299 297 312 322 330 335 341 347 344 342 341 334 354 332 345 329 329 330 323 318 313 310
241 232 229 236 244 245 243 240 241 246 250 257 262 266 276 282 293 304 307 305 300 296 296 308 317 327 335 339 347 0 350 340 337 339 342 336 346 336 329 325 320 313 311
235 228 225 229 236 251 250 245 245 245 249 255 258 262 280 281 296 304 305 302 296 292 292 302 314 326 337 345 353 354 344 330 330 332 334 337 337 333 332 322 316 312 310
225 217 220 225 231 246 254 244 243 246 253 256 256 263 270 283 295 302 303 300 295 289 286 295 304 315 325 335 343 350 337 311 325 323 325 327 329 330 331 322 316 312 311
218 212 206 212 223 236 242 242 245 248 254 258 262 264 272 283 294 300 301 297 292 285 282 286 291 298 308 316 321 323 319 314 317 317 316 319 323 326 332 329 318 316 316
202 200 204 209 218 226 231 238 243 248 255 259 261 264 269 279 292 300 302 300 293 284 280 281 283 288 296 301 303 305 306 306 305 298 306 315 318 323 326 329 318 319 318
194 196 202 214 221 230 239 245 249 252 255 256 258 264 271 278 286 294 295 296 294 286 278 275 276 281 285 290 293 294 297 297 301 300 297 306 309 317 320 325 318 317 320